Location: �terpigny
(49.8910°N, 2.9249°E)
Time: 16:15:42
(UTC+00:00)

EO-88 - Pass Details

Date: 05 July 2022
Orbit: 453 x 461 km, 97.3° (Epoch: 14 August)

Event Time Altitude Azimuth Distance (km) Brightness Sun altitude
Exits shadow 21:21:53 10° 179° (S) 1,630 ? -10.0°
Reaches altitude 10° 21:21:55 10° 180° (S) 1,622 ? -10.0°
Maximum altitude 21:25:20 57° 259° (W) 558 ? -10.4°
Drops below altitude 10° 21:28:48 10° 339° (NNW) 1,632 ? -10.7°
Sets 21:30:53 0° 344° (NNW) 2,512 ? -10.8°
